千帆星座-109(QIANFAN-109)

导读 | 豆包AI

QIANFAN-109(NORAD编号68636)是中国上海垣信卫星科技(Spacesail)打造的千帆(G60星链)低轨互联网星座组网卫星,属于第七批组网卫星,于2026年4月发射入轨。千帆星座计划部署约14000颗低轨卫星,目标提供全球低延迟互联网接入服务,QIANFAN-109运行在约1060公里高度近极轨轨道(轨道倾角约89°),属于第一代千帆平板卫星,单星重量不超过300kg,配备相控阵天线,设计寿命7年,通信容量达5Gbps,为星座全球网络建设补充节点能力,推动低轨商业通信网络部署。

基本信息
目录编号:
68636
目录名称:
QIANFAN-109
国际标识:
2026-075A
轨道中心:
EARTH
卫星名称:
千帆星座-109
卫星全名:
千帆星座-109(QIANFAN-109)
卫星状态:
在轨 (已飞行24 天)
发射日期:
2026-04-07 UTC
国别 :
中国 (CN)
星等 :
--
轨道信息
数据来源 国际轨道数据 AOE轨道数据
星历时间 2026-05-01T19:30:24+0800
8小时前
查看轨道信息
2026-04-29T07:00:00+0800
2天前
查看轨道信息
半长轴 7225.944km 7206.843km
偏心率 0.0014731 0.0014278
轨道倾角 88.989° 88.992°
近地点辐角 135.855° 145.046°
升交点赤经 325.971° 326.254°
平近点角 224.381° 335.268°
近地点 837.162km 818.416km
远地点 858.452km 838.996km
周期 101.883分钟 101.479分钟
每日圈数 14.133865 14.190093
详细信息
卫星平台:
109
覆盖范围:
全球
运营商:
上海垣信卫星科技有限公司
运营商所在国:
中国
使用方式:
暂无
卫星简介
千帆星座,也被称为“G60星链”计划,是中国版“星链”的重要组成部分,旨在打造一个由1.4万多颗低轨宽频多媒体卫星构成的庞大星座。千帆星座计划由上海垣信卫星科技有限公司负责实施,于2023年启动建设。该项目是我国第二个低轨卫星大星座,旨在通过构建庞大的卫星网络,为全球用户提供高质量的通信和宽带互联网服务。
2D轨道图
3D轨道图
轨道高度分析图
轨道倾角分析图
轨道综合分析图
查看轨道综合分析图